ONEWEB-0011, 44062

Orbit data source: Space-Track

ONEWEB-0011, 44062 is a payload satellite owned by One Web (UK) in LEO that was launched on Wed, 27 Feb 2019 UTC via a SOYUZ-ST-B launch vehicle from the French Guiana (FRGUI). Payloads include a variety of satellites, spacecraft, and rockets equipped with specific instruments for various scientific and technological missions. These include communications satellites like Starlink; space stations such as the ISS; scientific satellites like the Hubble; Earth observation satellites from companies like Planet Labs, Umbra, and HawkEye 360; GPS; miniature CubeSats for education and research; and military/defense satellites.

Loading next visibility...
ONEWEB-0011 details
Identifier
44062, 2019-010F
Orbit
LEO
Last TLE update16 hours ago
Origin
Flag of UKOne Web (UK)
ManufacturerAirbus/Toulouse
MissionOperational Commercial Communications
Bus & MotorARROW, Unknown motor
Mass148 kg wet, ~140 kg dry
Launch date (UTC)
2019-02-27 (6 years ago)
Launch vehicle
SOYUZ-ST-B
Launch site
French Guiana (FRGUI)
Object type
Payload
Rocket body
Debris
Shape & HBRTrap Box + 2 Pan, 5 m
Radar Cross Section2.957 m², Large (>1 m²)

Expand to show TLE details & history

TLE from 16 hours ago
0 ONEWEB-0011
1 44062U 19010F   25014.52584802 -.00000116  00000-0 -34098-3 0  9990
2 44062  87.9076   2.4531 0001991  92.1730 267.9629 13.15545554283228
Epoch: 2025-01-14T12:37Z
Definitive object data (Epoch: 2025-01-14T12:37:13.268Z)
Latitude0.00002°
Longitude58.91653°
Altitude1,204.732 km
Speed7.252 km/s
True Right ascension00h 09m 48s
True Declination0° 00' 00"
Sunlit
Object was in daylight at TLE epoch
Visualization TLE readout
Latitude-50.52208°
Longitude-118.68452°
Altitude1,222.579 km
Speed7.242 km/s
Apparent Right ascension14h 41m 54s
Apparent Declination-51° 18' 32"
Sunlit
Object is in daylight
Visualization observer readout
Local Sidereal Time05:02:28
Azimuth126.95° SE
Elevation-63.242°
Doppler factor1
Orbital elements
Apogee altitude1,200.403 km
Perigee altitude1,197.386 km
Semi-major axis7,577.031 km
Eccentricity0.0001991
Inclination87.9076°
RAAN2.4531°
Arg. of periapsis92.173°
True anomaly267.9401°
Mean anomaly267.9629°
Eccentric anomaly267.9515°
Mean motion3.29075 °/min
BSTAR-0.00034098
Orbital period109.4 mins
Loading maneuver chart data...
Loading historical data...
Loading historical data...
Loading historical data...
Loading historical data...
Loading historical data...
Loading historical data...
Loading historical data...

ONEWEB-0011 Visibility forecast

Observer location: undefined°, undefined

Span
Click to sort rows by Start time (UTC) header in descending order
Start Az.
Max El. time (UTC)
Max El. Az.
Max El.
End time (UTC)
End Az.
4 mins2025-01-15 09:21:25.911Z53.903° ENE2025-01-15 09:23:25.911Z70.935° E12.332°2025-01-15 09:25:25.911Z87.889° E
12 mins2025-01-15 11:08:25.911Z2.85° NNE2025-01-15 11:14:25.911Z128.777° SE44.352°2025-01-15 11:20:25.911Z176.313° S
7 mins2025-01-15 12:59:25.911Z316.771° NNW2025-01-15 13:02:25.911Z289.607° WNW16.508°2025-01-15 13:06:25.911Z253.854° W
4 mins2025-01-15 21:40:25.911Z83.593° E2025-01-15 21:41:25.911Z74.737° E13.516°2025-01-15 21:44:25.911Z48.653° ENE
13 mins2025-01-15 23:24:25.911Z176.293° S2025-01-15 23:30:25.911Z48.854° ENE44.889°2025-01-15 23:37:25.911Z1.61° NNE
6 mins2025-01-16 01:18:25.911Z266.425° W2025-01-16 01:20:25.911Z284.657° WNW15.151°2025-01-16 01:24:25.911Z319.678° NNW
|